STARLINK-1502, 45764

Orbit data source: Space-Track

STARLINK-1502, 45764 is a payload satellite owned by SpaceX/Seattle (US) in LEO that was launched on Sat, 13 Jun 2020 UTC via an FALCON 9 launch vehicle from the Air Force Eastern Test Range (AFETR). Payload-class satellites include a variety of spacecraft equipped with specific instruments for various scientific and technological missions. These include communications satellites like Starlink; space stations such as the ISS; scientific satellites like the Hubble; Earth observation satellites from companies like Planet Labs, Umbra, and HawkEye 360; GPS; miniature CubeSats for education and research; and military/defense satellites.

Loading next visibility...
Identifier
45764, 2020-038AL
Orbit
LEO
Country
Flag of USUS
Related business
Manufacturer
SpaceX/Seattle
Mission
Operational Commercial Communications
Bus & Motor
STARLINK, Unknown motor
Mass
260 kg wet, ~248 kg dry
Launch date (UTC)
2020-06-13 (5 years ago)
Launch vehicle
FALCON 9
Launch site
Air Force Eastern Test Range (AFETR)
Object type
Payload
Rocket body
Debris
Shape & HBR
Box + 1 Pan, 10.1 m
Radar Cross Section
13.562 m², Large (>1 m²)

Expand to show TLE details & history
Last TLE update: 1 day ago

TLE from 1 day ago
0 STARLINK-1502
1 45764U 20038AL  25307.62832430  .00000340  00000-0  41712-4 0  9990
2 45764  53.0553  62.5287 0001465  94.9269 265.1887 15.06389807297488
Epoch: 2025-11-03T15:04Z
TLE epoch observation values (Epoch: 2025-11-03T15:04:47.219Z)
Latitude
-0.00005°
Longitude
153.20495°
Altitude
548.207 km
Speed
7.589 km/s
True Right ascension
04h 10m 06s
True Declination
0° 00' 00"
Sunlit
Object was in full shadow at epoch
Visualization orbit readout
Latitude
Unknown
Longitude
Unknown
Altitude
Unknown
Speed
Unknown
Apparent Right ascension
Unknown
Apparent Declination
Unknown
Sunlit
N/A
Visualization observer readout
Local Sidereal Time
14:18:41
Azimuth
Unknown
Elevation
Unknown
Doppler factor
Unknown
Orbital elements
Apogee altitude
548.528 km
Perigee altitude
546.499 km
Semi-major axis
6,925.65 km
Eccentricity
0.00015
Inclination
53.0553°
RAAN
62.5287°
Arg. of periapsis
94.9269°
True anomaly
265.17197°
Mean anomaly
265.1887°
Eccentric anomaly
265.18034°
Mean motion
3.76576 °/min
Orbital period
95.6 mins
BSTAR
0.000041712
Loading maneuver chart data...
Computing Atmospheric mass density...

Documentation

Showing up to 5 results
|